Rochester, NH

5:17 PM EST on February 08, 2016 (GMT -0500)
Skyhaven

Weather History for KDAW - August, 2013

Change the Weather History Date:

Monday, August 19, 2013

  Actual Average (KSFM) Record (KSFM)
Temperature  
Mean Temperature 70 °F -  
Max Temperature 82 °F 76 °F 89 °F (2002)
Min Temperature 57 °F 52 °F 32 °F (1999)
Cooling Degree Days 4    
Growing Degree Days 20 (Base 50)    
Moisture  
Dew Point 59 °F    
Average Humidity 69    
Maximum Humidity 90    
Minimum Humidity 45    
Precipitation  
Precipitation 0.00 in - - ()
Sea Level Pressure  
Sea Level Pressure 29.97 in    
Wind  
Wind Speed 2 mph (WNW)    
Max Wind Speed 8 mph    
Max Gust Speed -    
Visibility 10 miles    
Events      
Averages and records for this station are not official NWS values.
T = Trace of Precipitation, MM = Missing Value Source: NWS Daily Summary

Daily Weather History Graph

Daily Weather History Graph

Search for Another Location

Airport or City:

Trip Planner

Search our weather history database for the weather conditions in past years. The results will help you decide how hot, cold, wet, or windy it might be!

Date:

Astronomy

Aug. 19, 2013 Rise Set
Actual Time 5:53 AM EDT 7:40 PM EDT
Civil Twilight 5:23 AM EDT 8:10 PM EDT
Nautical Twilight 4:46 AM EDT 8:47 PM EDT
Astronomical Twilight 4:06 AM EDT 9:27 PM EDT
Moon 6:28 PM EDT (8/19) 4:08 AM EDT (8/19)
Length of Visible Light 14h 47m
Length of Day
13h 46m
Waxing Gibbous, 97% of the Moon is Illuminated
Aug 19
Waxing Gibbous
Aug 20
Full
Aug 28
Last Quarter
Sep 5
New
Sep 12
First Quarter

Hourly Weather History & Observations

Time (EDT) Temp. Heat Index Dew Point Humidity Pressure Visibility Wind Dir Wind Speed Gust Speed Precip Events Conditions
12:51 AM 62.1 °F - 59.0 °F 90% 30.05 in 10.0 mi Calm Calm - N/A   Clear
1:51 AM 60.1 °F - 55.9 °F 86% 30.03 in 10.0 mi Calm Calm - N/A   Clear
2:51 AM 62.1 °F - 57.9 °F 86% 30.02 in 10.0 mi Variable 3.5 mph - N/A   Clear
3:51 AM 59.0 °F - 55.9 °F 90% 30.01 in 10.0 mi WNW 3.5 mph - N/A   Clear
4:51 AM 57.9 °F - 55.0 °F 90% 30.01 in 10.0 mi Calm Calm - N/A   Clear
5:51 AM 57.9 °F - 55.0 °F 90% 30.01 in 10.0 mi Calm Calm - N/A   Clear
6:51 AM 60.1 °F - 57.0 °F 90% 30.01 in 10.0 mi Calm Calm - N/A   Clear
7:51 AM 64.9 °F - 57.9 °F 78% 30.01 in 10.0 mi Calm Calm - N/A   Clear
8:51 AM 70.0 °F - 57.9 °F 65% 30.00 in 10.0 mi WNW 4.6 mph - N/A   Clear
9:51 AM 75.0 °F - 61.0 °F 62% 29.99 in 10.0 mi Calm Calm - N/A   Clear
10:51 AM 77.0 °F - 59.0 °F 54% 29.98 in 10.0 mi NW 8.1 mph - N/A   Clear
11:51 AM 78.1 °F - 59.0 °F 52% 29.97 in 10.0 mi Variable 5.8 mph - N/A   Clear
12:51 PM 78.1 °F - 59.0 °F 52% 29.96 in 10.0 mi Variable 4.6 mph - N/A   Clear
1:51 PM 80.1 °F 81.1 °F 61.0 °F 52% 29.94 in 10.0 mi Variable 3.5 mph - N/A   Clear
2:51 PM 81.0 °F 81.3 °F 59.0 °F 47% 29.93 in 10.0 mi Variable 5.8 mph - N/A   Clear
3:51 PM 81.0 °F 81.1 °F 57.9 °F 45% 29.93 in 10.0 mi Variable 5.8 mph - N/A   Clear
4:51 PM 82.0 °F 82.1 °F 59.0 °F 45% 29.92 in 10.0 mi Variable 4.6 mph - N/A   Clear
5:51 PM 80.1 °F 80.9 °F 60.1 °F 50% 29.91 in 10.0 mi Calm Calm - N/A   Clear
6:51 PM 77.0 °F - 63.0 °F 62% 29.94 in 10.0 mi Calm Calm - N/A   Clear
7:51 PM 73.9 °F - 62.1 °F 66% 29.94 in 10.0 mi SW 3.5 mph - N/A   Clear
8:51 PM 72.0 °F - 62.1 °F 71% 29.94 in 10.0 mi Calm Calm - N/A   Clear
9:51 PM 71.1 °F - 60.1 °F 68% 29.95 in 10.0 mi Variable 3.5 mph - N/A   Clear
10:51 PM 68.0 °F - 60.1 °F 76% 29.95 in 10.0 mi Calm Calm - N/A   Clear
11:51 PM 66.0 °F - 60.1 °F 81% 29.95 in 10.0 mi Calm Calm - N/A   Clear